Regional Weather Roundup
Issued by NWS

Home | Current Version | Previous Version | Graphics & Text | Print | Product List | Glossary On
Versions: 1 2 3 4 5 6 7 8 9 10 11 12 13 14 15 16 17 18 19 20 21 22 23 24 25 26 27 28 29 30 31 32 33 34 35 36 37 38 39 40 41 42 43 44 45 46 47 48 49 50
000
ASUS44 KMEG 221910
RWRTN
TENNESSEE HOURLY STATE WEATHER ROUNDUP
NATIONAL WEATHER SERVICE MEMPHIS TN
200 PM CDT SUN OCT 22 2017

TNZ002-004-019-021-049-052-054-088>092-222000-
WEST TENNESSEE

CITY           SKY/WX    TMP DP  RH WIND       PRES   REMARKS
MEMPHIS INTL   LGT RAIN  71  67  87 S10       29.98S
NWS MEMPHIS      N/A     71 N/A N/A MISG        N/A
JACKSON        CLOUDY    77  66  68 S13G22    29.99F
DYERSBURG        N/A     73  65  75 S16       29.98
SOMERVILLE     CLOUDY    72  68  88 S7        29.98F
COVINGTON      CLOUDY    72  66  83 S9G17     29.97F
UNION CITY     CLOUDY    79  63  57 S21G26    29.96F
BOLIVAR        CLOUDY    75  66  73 S13G21    29.99F
HUNTINGDON     PTSUNNY   75  63  64 S12G21    29.99F
LEXINGTON      CLOUDY    75  63  64 S9        30.02F
SELMER         CLOUDY    73  64  73 S9        30.02F
SAVANNAH       CLOUDY    75  64  69 S10G17    30.02S
$$

TNZ008-025-027-028-033-062-065-066-222000-
NORTH MIDDLE TENNESSEE

CITY           SKY/WX    TMP DP  RH WIND       PRES   REMARKS
NASHVILLE      PTSUNNY   79  59  50 S16G26    30.09F
PORTLAND       PTSUNNY   77  61  57 S15       30.08F
CLARKSVILLE    CLOUDY    76  59  55 S13       30.04F
SMYRNA         PTSUNNY   78  60  53 S10G23    30.10F
COOKEVILLE     PTSUNNY   77  59  53 S16       30.13F
GALLATIN       PTSUNNY   79  59  50 S13G23    30.11F
CROSSVILLE     CLOUDY    72  57  59 S8G18     30.19F
$$

TNZ061-075-076-078-094-096-097-222000-
SOUTH MIDDLE TENNESSEE

CITY           SKY/WX    TMP DP  RH WIND       PRES   REMARKS
FAYETTEVILLE   CLOUDY    75  63  64 S16       30.10F
TULLAHOMA      SUNNY     73  57  56 SE12      30.12F
WINCHESTER     MOSUNNY   75  61  60 SE18        N/A
COLUMBIA       CLOUDY    75  63  64 S8        30.05F
SHELBYVILLE    PTSUNNY   75  61  60 S14G24    30.10F
$$

TNZ017-018-042-046-047-222000-
NORTHEAST TENNESSEE

CITY           SKY/WX    TMP DP  RH WIND       PRES   REMARKS
TRI CITIES     PTSUNNY   78  47  33 CALM      30.21F
ELIZABETHTON   SUNNY     77  50  38 E13G18    30.22F
$$

TNZ012-013-036-069-073-074-222000-
CENTRAL EAST TENNESSEE

CITY           SKY/WX    TMP DP  RH WIND       PRES   REMARKS
KNOXVILLE      CLOUDY    79  57  46 S8        30.17F
DOWNTOWN KNOXV SUNNY     77  54  44 CALM      30.18F
GATLINBURG     SUNNY     79  52  38 NW5       30.18F
MORRISTOWN     SUNNY     77  48  36 VRB3      30.19F
JACKSBORO      SUNNY     75  54  46 S7G15     30.22F
$$

TNZ083-085-099-222000-
SOUTHEAST TENNESSEE

CITY           SKY/WX    TMP DP  RH WIND       PRES   REMARKS
CHATTANOOGA    PTSUNNY   77  60  55 SE12G22   30.15F
DAYTON         CLEAR     79  64  61 S13       30.14F
$$

SKY/WX REPORTED AS FAIR MEANS FEW OR NO CLOUDS BELOW
12 THOUSAND FEET.




USA.gov is the U.S. government's official web portal to all federal, state and local government web resources and services.